TIME,DELAY(SENSOR),PRES,T(CTD),SAL,OXYGEN,RAWTEMP,T(OPTODE),TCPHASE,FLUOR,BETA(BETA700),BETA(BETA412),BETA(BETA440),CDOM,C(CSC),ED(ED412.40),ED(ED444.00),ED(ED489.70),ED(ED554.30),LU(LU411.80),LU(LU443.40),LU(LU489.60),LU(LU554.10),COMP,TILTX,TILTX(TILTY),CHECK
1334093819,5811,498.2200012207031000,6.9688000679016110,34.1926002502441400,64.5784835815429700,588.8150024414062000,6.9449920654296875,50.6596717834472660,52,108,94,82,81,15238,2147747318,2147417590,2148001408,2147874322,2147628562,2147094034,2148249316,2147203684,69,4,13,14605
1334094026,5807,483.9700012207031000,7.2518000602722170,34.1786994934082000,76.2326507568359400,580.1624755859375000,7.2232480049133300,49.0722007751464840,51,110,90,81,81,15237,2147748690,2147421394,2148003419,2147873837,2147630235,2147083547,2148238976,2147203126,3127,4,12,36346
1334094165,5807,472.1400146484375000,7.4168000221252440,34.1805000305175800,82.1935882568359400,574.6375122070312000,7.4005699157714840,48.2781715393066400,52,107,90,80,80,15239,2147747419,2147420854,2148001325,2147872886,2147624969,2147091712,2148238427,2147204891,1775,4,13,40681
1334094280,5807,461.5100097656250000,7.5199999809265140,34.1757011413574200,85.9673385620117200,571.5407714843750000,7.4998378753662110,47.7958106994628900,52,108,91,82,80,15239,2147748406,2147420854,2148002761,2147871661,2147624484,2147086162,2148239204,2147201572,1962,4,13,11671
1334094397,5806,450.2600097656250000,7.6543998718261720,34.1679992675781250,90.9753036499023400,567.2144775390625000,7.6383819580078125,47.1632499694824200,51,106,91,80,80,15238,2147749348,2147421229,2148001846,2147874075,2147623936,2147093869,2148244041,2147205531,2231,4,13,21445
1334094512,5807,439.3399963378906000,7.8323001861572270,34.1525001525878900,100.7546997070312500,561.7360839843750000,7.8135890960693360,46.0126495361328100,51,107,91,81,79,15240,2147741586,2147418422,2147998875,2147871844,2147625664,2147092690,2148236397,2147207268,2387,4,13,32904
1334094641,5808,427.5100097656250000,8.0509004592895500,34.1344985961914060,114.3105010986328100,554.6068115234375000,8.0412101745605470,44.5109710693359400,51,110,91,81,78,15236,2147745106,2147420562,2148001005,2147872429,2147619620,2147096118,2148235282,2147204388,2288,4,13,55061
1334094768,5807,415.6900024414062500,8.2636003494262700,34.1208992004394500,130.3840026855468800,548.2249145507812000,8.2446079254150390,42.8892707824707000,50,108,91,82,77,15238,2147743478,2147420635,2147999378,2147872457,2147621814,2147098642,2148237805,2147202258,434,4,14,7734
1334094883,5804,405.1499938964844000,8.5370998382568360,34.1156005859375000,143.2203063964843800,539.6414794921875000,8.5176429748535160,41.6222610473632800,50,110,90,81,78,15236,2147740480,2147420032,2148001115,2147875977,2147620141,2147095680,2148228882,2147205257,796,4,13,7613
1334095000,5806,394.5899963378906000,8.8819999694824220,34.1234016418457000,151.1609039306640600,529.2454223632812000,8.8475532531738280,40.7866706848144500,50,110,86,82,76,15235,2147739181,2147420873,2148000667,2147875684,2147619638,2147100461,2148230582,2147207085,913,4,14,34825
1334095127,5804,383.5000000000000000,9.1630001068115230,34.1323013305664060,157.2169036865234400,519.8067016601562000,9.1463575363159180,40.1433601379394500,50,111,91,82,76,15235,2147738660,2147420818,2147999149,2147871643,2147618102,2147102317,2148229924,2147208274,1686,4,14,50714
1334095256,5804,372.5199890136719000,9.3943004608154300,34.1300010681152340,164.7256011962890600,512.6270751953125000,9.3731994628906250,39.4440193176269500,50,112,90,81,76,15232,2147740452,2147421284,2147999561,2147876562,2147618852,2147105929,2148227026,2147206473,2025,4,13,30416
1334095395,5810,361.0599975585937500,9.4918003082275390,34.1316986083984400,171.7817993164062500,509.2962951660156000,9.4783096313476560,38.8689613342285160,50,114,93,82,74,15233,2147735350,2147421659,2148000740,2147876123,2147614445,2147107648,2148230829,2147210496,1045,4,14,32275
1334095534,5807,350.4899902343750000,9.8325004577636720,34.1377983093261700,179.8939056396484400,498.4039001464844000,9.8214874267578120,38.1099815368652340,48,112,92,82,74,15234,2147738304,2147421421,2148000969,2147875949,2147612754,2147110912,2148225600,2147206939,1455,4,13,23421
1334095680,5807,338.6700134277344000,10.4666004180908200,34.1571998596191400,184.6976928710937500,478.2499084472656000,10.4543199539184570,37.4420089721679700,49,112,91,81,73,15232,2147738230,2147422628,2148006747,2147873316,2147614326,2147110820,2148229888,2147207131,3007,4,13,37510
1334095819,5804,327.1099853515625000,11.0703001022338870,34.1876983642578100,192.9776000976562500,457.7843933105469000,11.0942802429199220,36.5604782104492200,50,112,91,82,72,15230,2147734884,2147427638,2148009088,2147874322,2147607360,2147110628,2148226157,2147206948,2499,4,13,18909
1334095960,5808,316.3200073242187500,11.7347002029418950,34.2055015563964840,204.9481048583984400,437.8580017089844000,11.7150201797485350,35.4967002868652340,50,112,93,80,72,15230,2147731931,2147428315,2148017965,2147874459,2147604845,2147122633,2148223040,2147206802,1157,3,14,30241
1334096099,5808,306.2900085449219000,12.4391002655029300,34.2513999938964840,204.2821044921875000,414.3396911621094000,12.4449195861816400,35.1608314514160160,49,112,91,81,71,15234,2147730779,2147428882,2148023853,2147872923,2147602112,2147126473,2148222208,2147210898,365,4,14,26739
1334096269,5808,293.8599853515625000,12.7377996444702150,34.2813987731933600,204.9085998535156200,404.8822937011719000,12.7376804351806640,34.9750289916992200,49,113,91,83,71,15231,2147729060,2147432850,2148031296,2147873453,2147597284,2147132635,2148226139,2147215241,3445,4,14,5598
1334096384,5805,283.7500000000000000,13.4666004180908200,34.3364982604980500,204.0780029296875000,382.3497009277344000,13.4335899353027340,34.6735992431640600,50,112,88,81,71,15221,2147723730,2147435355,2148051053,2147874285,2147598290,2147134738,2148226404,2147213238,3038,3,14,18739
1334096513,5804,272.6000061035156000,13.7918996810913090,34.3544006347656250,210.1690063476562500,370.3822021484375000,13.8023796081542970,34.1349296569824200,49,106,89,82,71,15233,2147724388,2147443940,2148070180,2147873673,2147594148,2147146779,2148234093,2147215396,2686,3,14,16749
1334096640,5808,260.7000122070312500,14.3924999237060550,34.3967018127441400,214.2749023437500000,351.7280883789062500,14.3761901855468750,33.6215095520019500,49,107,87,81,70,15235,2147725412,2147457947,2148106102,2147877083,2147593179,2147161618,2148252388,2147213275,2515,4,13,2408
1334096743,5807,250.2400054931640600,14.8816995620727540,34.4416007995605500,214.9656066894531200,335.7940063476562500,14.8654699325561520,33.3459510803222660,49,106,86,82,67,15236,2147726116,2147478336,2148153280,2147872722,2147590948,2147176018,2148276772,2147217280,1263,3,14,54761
1334096860,5808,238.6799926757812500,15.2730998992919920,34.4808998107910160,214.5973968505859400,322.6254882812500000,15.2692899703979500,33.1721916198730500,49,104,89,81,69,15235,2147729636,2147510198,2148223570,2147873078,2147592740,2147196608,2148309878,2147225472,139,3,14,6644
1334096975,5809,228.5200042724609400,15.6507997512817380,34.5182991027832000,212.5630950927734400,310.2503051757812500,15.6484098434448240,33.1040992736816400,49,104,92,80,69,15235,2147739584,2147553389,2148311716,2147874688,2147593280,2147219794,2148353197,2147226578,3077,3,14,23569
1334097128,5807,217.4299926757812500,16.6891994476318360,34.6096992492675800,206.7350006103515600,275.3392944335937500,16.7163600921630860,32.9280281066894500,51,106,90,82,69,15226,2147758665,2147610889,2148418532,2147876260,2147596077,2147262601,2148397010,2147228717,3080,4,15,44368
1334097303,5809,206.6399993896484400,17.9188995361328120,34.7737007141113300,210.0341949462890600,236.2601928710937500,17.9101600646972660,32.1888084411621100,53,109,90,81,67,15224,2147732928,2147512438,2148163602,2147876278,2147584100,2147221650,2148267154,2147222445,1541,3,15,15389
1334100264,5810,98.6999969482421900,24.1049003601074220,35.1819000244140600,243.5074005126953000,34.3985710144043000,24.1063995361328120,27.8917598724365230,73,121,94,84,60,15120,2179249901,2184547794,2186015542,2148630025,2168712640,2171041965,2168594843,2149024768,861,1,17,59540
1334100319,5806,95.8199996948242200,24.1126995086669920,35.1814994812011700,243.7987976074218800,34.2997283935546900,24.1094703674316400,27.8777599334716800,74,123,93,85,58,15121,2181895780,2187289152,2188412388,2148747904,2171555931,2173829165,2170540022,2149195200,820,1,16,35778
1334100374,5807,92.9300003051757800,24.1126003265380860,35.1819000244140600,243.9239959716797000,34.2432785034179700,24.1112194061279300,27.8713798522949220,74,122,91,84,60,15120,2186119195,2192020745,2193050861,2148966144,2175413741,2177875437,2173620388,2149479195,859,1,16,61491
1334100429,5808,90.0699996948242200,24.2404003143310550,35.2052993774414060,243.5641937255859400,30.5481605529785160,24.2259101867675780,27.8417892456054700,73,122,92,85,58,15119,2190818624,2197288886,2198246345,2149224713,2179533010,2182151131,2176819904,2149774646,853,1,17,1509
1334100484,5804,87.5199966430664000,24.3379993438720700,35.1870994567871100,243.4299011230468800,27.5912399291992200,24.3177299499511720,27.8111095428466800,71,122,92,84,57,15118,2193366765,2199756452,2200331090,2149399369,2182489846,2184925769,2178648237,2149939373,737,2,16,59192
1334100539,5808,85.5000000000000000,24.3808002471923830,35.1809005737304700,243.4190979003906200,25.8851108551025400,24.3707408905029300,27.7905502319335940,69,123,93,84,59,15116,2189178852,2194361270,2194242313,2149279963,2180181778,2181817234,2175433654,2149664073,879,2,16,1993
1334100596,5806,83.9499969482421900,24.3988990783691400,35.1810989379882800,243.4228973388672000,25.1492691040039060,24.3936004638671880,27.7812309265136720,70,122,96,85,58,15118,2198381001,2205114752,2205254198,2149711049,2188277229,2190629824,2182477504,2150279259,944,2,16,15771
1334100675,5804,82.3000030517578100,24.4006004333496100,35.1777000427246100,243.4559020996093800,24.9169692993164060,24.4008197784423830,27.7770805358886720,69,121,94,84,57,15113,2200743405,2207409124,2207037924,2149894098,2191827501,2194033243,2184597092,2150472365,1277,1,17,21916
1334100778,5805,80.5100021362304700,24.4235000610351560,35.1797981262207000,243.3182067871093800,24.2822303771972660,24.4205493927001950,27.7750606536865230,68,122,94,85,60,15109,2205334272,2212504832,2211874304,2150224548,2196498230,2198550619,2187543433,2150747520,1539,1,17,43606
1334100927,5809,77.8000030517578100,24.4416999816894530,35.1735992431640600,243.2555999755859400,23.6401195526123050,24.4405002593994140,27.7701606750488280,66,120,92,84,57,15113,2210785161,2217983259,2216508214,2150692653,2203158436,2204731629,2191314614,2151126546,2068,1,16,31674
1334100982,5805,75.8600006103515600,24.4853992462158200,35.1626014709472660,243.1157989501953000,22.0719699859619140,24.4892501831054700,27.7569103240966800,65,122,94,86,59,15113,2216151625,2223393298,2221470089,2151098633,2208747913,2210174729,2194956077,2151481782,1695,1,16,15994
1334101037,5804,73.7699966430664000,24.5188007354736330,35.1502990722656250,243.0377960205078000,21.2109394073486330,24.5160293579101560,27.7498207092285160,64,118,92,85,58,15108,2222561929,2229906276,2227615104,2151635684,2215653248,2217180086,2199990610,2151975908,1348,2,17,24211
1334101092,5811,71.6100006103515600,24.5156993865966800,35.1469001770019500,243.1130981445312500,21.2163391113281250,24.5158596038818360,27.7465591430664060,64,121,92,85,55,15114,2228162989,2235561874,2232665334,2152155602,2222152320,2223298038,2203991323,2152390491,1455,2,16,55255
1334101147,5810,69.1900024414062500,24.5221996307373050,35.1249008178710940,243.2263031005859400,20.9808998107910160,24.5231800079345700,27.7385597229003900,63,121,95,85,58,15110,2234190765,2241606875,2238230976,2152884589,2229128045,2229918838,2208455396,2152870546,1527,2,16,56943
1334101202,5809,66.6500015258789000,24.5156993865966800,35.0716018676757800,243.4105987548828000,21.1336307525634770,24.5184307098388670,27.7323303222656250,63,121,93,85,57,15105,2243717732,2251696576,2248031981,2153978075,2238109531,2238339666,2214055707,2153528091,1479,1,16,14914
1334101280,5810,62.8800010681152340,24.5340003967285160,34.9933013916015600,243.2091064453125000,20.6265506744384770,24.5342006683349600,27.7348899841308600,59,120,92,85,61,15111,2253084205,2260109723,2255520265,2155385883,2248798518,2247902491,2220298706,2154301659,1089,0,17,33219
1334101335,5808,60.2500000000000000,24.5074996948242200,34.9196014404296900,243.3258056640625000,21.2787990570068360,24.5139198303222660,27.7379894256591800,58,118,93,85,57,15110,2256353334,2262888969,2258559652,2156563602,2254975771,2253274852,2223731236,2154766921,415,1,16,56391
1334101390,5807,57.7099990844726560,24.4827995300292970,34.9019012451171900,243.2568969726562500,22.0168991088867200,24.4909591674804700,27.7500495910644530,58,119,93,85,62,15111,2273450633,2282289289,2278709485,2159329965,2271711149,2269512475,2235332726,2156229760,987,1,16,21164
1334101445,5808,55.5000000000000000,24.4633007049560550,34.8764991760253900,243.1145019531250000,22.5643997192382800,24.4739398956298830,27.7630100250244140,57,118,91,86,59,15111,2279326217,2287453769,2283094948,2160901558,2282121014,2278507227,2240969837,2157052763,540,1,17,55170
1334101500,5805,53.1300010681152340,24.4346008300781250,34.8520011901855500,243.1804962158203000,23.3878593444824220,24.4483509063720700,27.7703704833984380,56,117,92,85,57,15113,2291533750,2300905517,2296935122,2163859812,2298825993,2294046692,2251558537,2158318025,3558,1,17,36068
1334101555,5806,50.7700004577636700,24.4309005737304700,34.8503990173339840,243.1201934814453000,23.6714992523193360,24.4395294189453120,27.7765007019042970,54,116,92,84,58,15106,2237180873,2238520512,2231968393,2156905728,2248111789,2240463222,2210858404,2153955894,3120,1,17,16627
1334101612,5805,48.3499984741210940,24.4239006042480470,34.8448982238769500,243.0180053710937500,23.8841209411621100,24.4329204559326170,27.7834300994873050,55,118,96,85,60,15109,2303399085,2314761024,2312021293,2169618816,2313579483,2306203209,2259247808,2160118601,2895,1,17,28479
1334101667,5808,45.9799995422363300,24.4197998046875000,34.8429985046386700,243.1490020751953000,23.9676208496093750,24.4303207397460940,27.7788505554199220,57,118,94,83,62,15099,2323891501,2336522788,2333622838,2174802258,2341630372,2332031826,2276631049,2162397705,2845,1,17,59774
1334101722,5806,43.5600013732910160,24.4171009063720700,34.8410987854003900,243.2198028564453000,24.1192703247070300,24.4256095886230470,27.7774391174316400,55,119,92,84,55,15108,2324409636,2335790107,2332108717,2177354048,2354285101,2342409938,2282654381,2163333750,2774,1,17,48843
1334101777,5805,41.0999984741210940,24.4113006591796880,34.8390998840332000,243.1905975341797000,24.2386703491210940,24.4218997955322270,27.7803096771240230,55,117,92,84,58,15106,2327521024,2338185270,2334350601,2180772187,2363338779,2349044653,2286294262,2165118061,2682,1,16,32125
1334101832,5806,38.7400016784668000,24.4132003784179700,34.8380012512207000,243.2059020996093800,24.2767295837402340,24.4207191467285160,27.7800407409667970,53,117,92,83,55,15108,2338984301,2350920886,2347342317,2185791872,2377887963,2361320612,2293772754,2166435556,2541,2,16,804
1334101887,5809,36.4799995422363300,24.4136009216308600,34.8371009826660160,243.1817016601562500,24.2518405914306640,24.4214897155761720,27.7809391021728500,53,117,90,84,61,15103,2351796918,2365005787,2361932150,2192797796,2400071606,2381671113,2307809216,2169512045,2345,1,17,14609
1334101944,5806,34.2299995422363300,24.4130001068115230,34.8370018005371100,243.2572937011718800,24.2631492614746100,24.4211406707763670,27.7777309417724600,54,118,92,86,60,15106,2369816548,2385239213,2384155483,2203836964,2425195328,2404925760,2323661421,2172250688,2366,1,16,23738
1334101999,5809,32.1500015258789060,24.4123001098632800,34.8372993469238300,243.3020935058593800,24.2095508575439450,24.4228096008300780,27.7751197814941400,53,117,92,84,56,15104,2381593993,2397663908,2397154358,2211980571,2441192192,2418244077,2332078601,2174945746,2329,1,16,40989
1334102054,5809,29.9699993133544920,24.4118003845214840,34.8361015319824200,243.3388977050781200,24.2152595520019530,24.4226303100585940,27.7736091613769530,52,116,91,85,60,15103,2390787520,2408486875,2408852644,2219305728,2452094701,2427278354,2337745270,2177168804,2354,1,17,20756
1334102109,5808,27.7199993133544920,24.4134006500244140,34.8357009887695300,243.3419952392578000,24.2372894287109380,24.4219398498535160,27.7735195159912100,53,117,91,84,57,15112,2407752091,2428209709,2432209572,2239944036,2468439707,2442492562,2349663908,2182285394,2263,1,17,50287
1334102164,5807,25.2800006866455080,24.4134998321533200,34.8358001708984400,243.3034057617187500,24.1289100646972660,24.4253101348876950,27.7740592956542970,52,116,95,83,58,15109,2412772260,2429891136,2430895460,2243931730,2503220297,2472947126,2368767195,2185768822,2056,1,17,52926
